Weather History for Clinton, IA

Change the Weather History Date:

Thursday, June 27, 2013

  Actual Average Record
Temperature  
Mean Temperature 78 °F -  
Max Temperature 89 °F 84 °F 95 °F (1971)
Min Temperature 68 °F 63 °F 47 °F (1992)
Cooling Degree Days 14    
Growing Degree Days 28 (Base 50)    
Moisture  
Dew Point 61 °F    
Average Humidity 58    
Maximum Humidity 78    
Minimum Humidity 35    
Precipitation  
Precipitation 0.00 in - - ()
Sea Level Pressure  
Sea Level Pressure 29.83 in    
Wind  
Wind Speed 9 mph (WNW)    
Max Wind Speed 24 mph    
Max Gust Speed 31 mph    
Visibility 9 miles    
Events      
Averages and records for this station are not official NWS values.
T = Trace of Precipitation, MM = Missing Value Source: NWS Daily Summary

Daily Weather History Graph

Daily Weather History Graph

Search for Another Location

Airport:

Trip Planner

Search our weather history database for the weather conditions in past years. The results will help you decide how hot, cold, wet, or windy it might be!

Date:

Astronomy

Jun. 27, 2013 Rise Set
Actual Time 5:28 AM CDT 8:40 PM CDT
Civil Twilight 4:54 AM CDT 9:14 PM CDT
Nautical Twilight 4:10 AM CDT 9:58 PM CDT
Astronomical Twilight 3:17 AM CDT 10:51 PM CDT
Moon 11:32 PM CDT (6/27) 10:34 AM CDT (6/27)
Length of Visible Light 16h 20m
Length of Day
15h 12m
Waning Gibbous, 76% of the Moon is Illuminated
Jun 27
Waning Gibbous
Jun 29
Last Quarter
Jul 8
New
Jul 15
First Quarter
Jul 22
Full

Hourly Weather History & Observations

Time (CDT) Temp. Heat Index Dew Point Humidity Pressure Visibility Wind Dir Wind Speed Gust Speed Precip Events Conditions
12:15 AM 73.4 °F - 64.4 °F 73% 29.80 in 10.0 mi SSE 3.5 mph - N/A   Clear
12:35 AM 73.4 °F - 64.4 °F 73% 29.81 in 10.0 mi South 4.6 mph - N/A   Scattered Clouds
12:55 AM 73.4 °F - 64.4 °F 73% 29.81 in 10.0 mi West 5.8 mph - N/A   Partly Cloudy
1:15 AM 73.4 °F - 64.4 °F 73% 29.81 in 10.0 mi West 6.9 mph - N/A   Clear
1:35 AM 73.4 °F - 64.4 °F 73% 29.81 in 3.0 mi West 5.8 mph - N/A   Clear
1:55 AM 73.4 °F - 64.4 °F 73% 29.81 in 4.0 mi WNW 5.8 mph - N/A   Clear
2:15 AM 71.6 °F - 64.4 °F 78% 29.81 in 4.0 mi NW 6.9 mph - N/A   Clear
2:35 AM 71.6 °F - 64.4 °F 78% 29.82 in 7.0 mi NW 6.9 mph - N/A   Clear
2:55 AM 71.6 °F - 64.4 °F 78% 29.82 in 7.0 mi NW 5.8 mph - N/A   Clear
3:15 AM 71.6 °F - 64.4 °F 78% 29.82 in 7.0 mi WNW 5.8 mph - N/A   Clear
3:35 AM 71.6 °F - 64.4 °F 78% 29.82 in 10.0 mi NW 6.9 mph - N/A   Clear
3:55 AM 71.6 °F - 62.6 °F 73% 29.83 in 10.0 mi NW 4.6 mph - N/A   Clear
4:15 AM 69.8 °F - 62.6 °F 78% 29.82 in 4.0 mi Calm Calm - N/A   Clear
4:35 AM 69.8 °F - 62.6 °F 78% 29.82 in 5.0 mi West 6.9 mph - N/A   Clear
4:55 AM 69.8 °F - 62.6 °F 78% 29.83 in 7.0 mi West 8.1 mph - N/A   Clear
5:15 AM 69.8 °F - 62.6 °F 78% 29.83 in 10.0 mi WNW 6.9 mph - N/A   Clear
5:35 AM 69.8 °F - 62.6 °F 78% 29.84 in 10.0 mi WNW 6.9 mph - N/A   Clear
5:55 AM 69.8 °F - 62.6 °F 78% 29.85 in 10.0 mi NNW 8.1 mph - N/A   Clear
6:35 AM 69.8 °F - 62.6 °F 78% 29.85 in - NW 5.8 mph - N/A   Unknown
6:55 AM 71.6 °F - 62.6 °F 73% 29.86 in 9.0 mi WNW 3.5 mph - N/A   Clear
7:15 AM 71.6 °F - 62.6 °F 73% 29.87 in 10.0 mi WNW 5.8 mph - N/A   Clear
7:35 AM 73.4 °F - 62.6 °F 69% 29.87 in 10.0 mi NW 6.9 mph - N/A   Clear
7:55 AM 73.4 °F - 62.6 °F 69% 29.87 in 10.0 mi NW 8.1 mph - N/A   Clear
8:15 AM 75.2 °F - 62.6 °F 65% 29.88 in 10.0 mi WNW 9.2 mph - N/A   Clear
8:35 AM 77.0 °F - 64.4 °F 65% 29.87 in 10.0 mi NW 6.9 mph - N/A   Clear
8:55 AM 78.8 °F - 64.4 °F 61% 29.87 in 10.0 mi WNW 6.9 mph - N/A   Clear
9:15 AM 78.8 °F - 64.4 °F 61% 29.88 in 10.0 mi WNW 6.9 mph - N/A   Clear
9:35 AM 78.8 °F - 64.4 °F 61% 29.87 in 10.0 mi WNW 8.1 mph - N/A   Clear
9:55 AM 80.6 °F 82.7 °F 66.2 °F 61% 29.86 in 10.0 mi West 6.9 mph - N/A   Clear
10:15 AM 82.4 °F 83.9 °F 64.4 °F 54% 29.87 in 10.0 mi West 9.2 mph - N/A   Clear
10:35 AM 82.4 °F 84.6 °F 66.2 °F 58% 29.86 in 10.0 mi West 11.5 mph - N/A   Clear
10:55 AM 82.4 °F 83.9 °F 64.4 °F 54% 29.86 in 10.0 mi West 9.2 mph - N/A   Clear
11:15 AM 82.4 °F 83.9 °F 64.4 °F 54% 29.86 in 10.0 mi West 10.4 mph - N/A   Clear
11:35 AM 84.2 °F 85.6 °F 64.4 °F 51% 29.87 in 10.0 mi West 11.5 mph - N/A   Clear
11:55 AM 84.2 °F 85.0 °F 62.6 °F 48% 29.86 in 10.0 mi West 10.4 mph - N/A   Partly Cloudy
12:15 PM 84.2 °F 85.6 °F 64.4 °F 51% 29.86 in 10.0 mi West 11.5 mph - N/A   Partly Cloudy
12:35 PM 84.2 °F 85.6 °F 64.4 °F 51% 29.86 in 10.0 mi West 12.7 mph - N/A   Partly Cloudy
12:55 PM 84.2 °F 85.0 °F 62.6 °F 48% 29.86 in 10.0 mi West 11.5 mph - N/A   Clear
1:15 PM 87.8 °F 88.5 °F 62.6 °F 43% 29.86 in 10.0 mi West 13.8 mph - N/A   Clear
1:35 PM 87.8 °F 89.4 °F 64.4 °F 46% 29.85 in 10.0 mi West 20.7 mph 27.6 mph N/A   Clear
1:55 PM 87.8 °F 88.5 °F 62.6 °F 43% 29.84 in 10.0 mi West 23.0 mph 28.8 mph N/A   Clear
2:15 PM 87.8 °F 88.5 °F 62.6 °F 43% 29.83 in 10.0 mi WSW 20.7 mph 26.5 mph N/A   Clear
2:35 PM 87.8 °F 88.5 °F 62.6 °F 43% 29.84 in 10.0 mi West 19.6 mph 31.1 mph N/A   Clear
2:55 PM 89.6 °F 89.5 °F 60.8 °F 38% 29.84 in 10.0 mi WNW 24.2 mph 31.1 mph N/A   Clear
3:15 PM 87.8 °F 87.6 °F 60.8 °F 40% 29.83 in 10.0 mi West 23.0 mph 29.9 mph N/A   Clear
3:35 PM 86.0 °F 85.4 °F 59.0 °F 40% 29.83 in 10.0 mi West 23.0 mph 29.9 mph N/A   Clear
3:55 PM 87.8 °F 87.6 °F 60.8 °F 40% 29.82 in 10.0 mi WNW 21.9 mph 29.9 mph N/A   Clear
4:15 PM 87.8 °F 87.1 °F 59.0 °F 38% 29.81 in 10.0 mi WNW 19.6 mph 28.8 mph N/A   Clear
4:35 PM 87.8 °F 87.6 °F 60.8 °F 40% 29.81 in 10.0 mi WNW 18.4 mph 23.0 mph N/A   Clear
4:55 PM 86.0 °F 86.1 °F 60.8 °F 43% 29.81 in 10.0 mi WNW 20.7 mph 26.5 mph N/A   Clear
5:15 PM 86.0 °F 85.4 °F 59.0 °F 40% 29.81 in 10.0 mi NW 18.4 mph 28.8 mph N/A   Clear
5:35 PM 84.2 °F 83.8 °F 59.0 °F 42% 29.80 in 10.0 mi WNW 19.6 mph 27.6 mph N/A   Clear
5:55 PM 84.2 °F 83.8 °F 59.0 °F 42% 29.80 in 10.0 mi WNW 21.9 mph 28.8 mph N/A   Clear
6:15 PM 84.2 °F 83.5 °F 57.2 °F 40% 29.80 in 10.0 mi WNW 19.6 mph 28.8 mph N/A   Clear
6:35 PM 84.2 °F 82.8 °F 53.6 °F 35% 29.80 in 10.0 mi NW 15.0 mph 28.8 mph N/A   Clear
6:55 PM 82.4 °F 81.4 °F 53.6 °F 37% 29.79 in 10.0 mi WNW 15.0 mph - N/A   Clear
7:15 PM 82.4 °F 81.4 °F 53.6 °F 37% 29.80 in 10.0 mi WNW 12.7 mph - N/A   Clear
7:35 PM 80.6 °F 80.3 °F 53.6 °F 39% 29.80 in 10.0 mi WNW 13.8 mph - N/A   Clear
7:55 PM 80.6 °F 80.3 °F 53.6 °F 39% 29.80 in 10.0 mi WNW 13.8 mph - N/A   Clear
8:15 PM 78.8 °F - 53.6 °F 42% 29.80 in 10.0 mi WNW 10.4 mph - N/A   Clear
8:35 PM 75.2 °F - 53.6 °F 47% 29.80 in 10.0 mi WNW 10.4 mph - N/A   Clear
8:55 PM 73.4 °F - 55.4 °F 53% 29.80 in 10.0 mi WNW 9.2 mph - N/A   Clear
9:15 PM 71.6 °F - 55.4 °F 57% 29.81 in 10.0 mi WNW 9.2 mph - N/A   Clear
9:35 PM 71.6 °F - 55.4 °F 57% 29.81 in 10.0 mi WNW 6.9 mph - N/A   Clear
9:55 PM 69.8 °F - 55.4 °F 60% 29.82 in 10.0 mi WNW 9.2 mph - N/A   Clear
10:15 PM 69.8 °F - 55.4 °F 60% 29.82 in 10.0 mi NW 8.1 mph - N/A   Clear
10:35 PM 68.0 °F - 53.6 °F 60% 29.82 in 10.0 mi WNW 8.1 mph - N/A   Clear
10:55 PM 68.0 °F - 53.6 °F 60% 29.82 in 10.0 mi WNW 8.1 mph - N/A   Clear
11:15 PM 68.0 °F - 53.6 °F 60% 29.82 in 10.0 mi NW 9.2 mph - N/A   Clear
11:35 PM 69.8 °F - 53.6 °F 56% 29.83 in 10.0 mi NW 8.1 mph - N/A   Clear
11:55 PM 69.8 °F - 53.6 °F 56% 29.83 in 10.0 mi NNW 8.1 mph - N/A   Clear